HJ3GNC-13 Weather Reports


time (UTC)temp
F
wind
direction
speed
knots
gust
knots
rain 1hr
in
rain 24hr
in
rain mn
in
humidity
%
barometer
mb
20260504224637 60 114 0.0 0.0 0.00 0.00 0.00 73 1015.0
20260504205630 63 119 0.0 0.0 0.00 0.00 0.00 68 1014.0
20260504204036 63 119 0.0 0.0 0.00 0.00 0.00 68 1014.0
20260504202451 63 240 0.0 0.0 0.00 0.00 0.00 68 1014.0
20260504200839 63 240 0.0 0.0 0.00 0.00 0.00 68 1014.0
20260504195255 63 240 0.0 0.0 0.00 0.00 0.00 68 1014.0
20260504193713 65 120 0.0 0.0 0.00 0.00 0.00 66 1014.0
20260504192132 65 0 0.0 0.0 0.00 0.00 0.00 68 1014.0
20260504190543 65 0 0.0 0.0 0.00 0.00 0.00 67 1014.0
20260504185002 65 150 0.0 0.0 0.00 0.00 0.00 66 1014.0
20260504181836 65 150 0.0 0.0 0.00 0.00 0.00 67 1015.0
20260504180254 65 120 0.0 0.0 0.00 0.00 0.00 68 1015.0
20260504174711 65 120 0.0 0.0 0.00 0.00 0.00 70 1015.0
20260504173126 65 120 0.0 0.0 0.00 0.00 0.00 72 1015.0
20260504171544 65 120 0.0 0.0 0.00 0.00 0.00 76 1016.0
20260504141210 57 0 0.0 0.0 0.00 0.00 0.00 99 1017.0
20260504100436 55 0 0.0 0.0 0.00 0.00 0.00 99 1018.0
20260504081325 55 20 0.0 0.0 0.00 0.00 0.00 99 1018.0
20260504035852 55 340 0.0 0.0 0.00 0.00 0.00 99 1020.0
20260504034257 57 340 0.0 0.0 0.00 0.00 0.00 98 1020.0
20260504032707 57 340 0.0 0.0 0.00 0.00 0.00 98 1020.0
20260504031122 57 340 0.0 0.0 0.00 0.00 0.00 98 1020.0
20260504025521 57 0 0.0 0.0 0.00 0.00 0.00 98 1020.0
20260504023858 57 0 0.0 0.0 0.00 0.00 0.00 98 1019.0
20260504022305 57 0 0.0 0.0 0.00 0.00 0.00 98 1019.0
20260504020705 57 0 0.0 0.0 0.00 0.00 0.00 98 1019.0
20260504015114 58 0 0.0 0.0 0.00 0.00 0.00 95 1019.0
20260504013508 58 0 0.0 0.0 0.00 0.00 0.00 95 1019.0
20260504011856 58 0 0.0 0.0 0.00 0.00 0.00 94 1018.0
20260503225120 60 139 0.0 0.0 0.00 0.00 0.00 77 1015.0